Home > Weather > Adamstown > Past weeks

Flag for Pitcairn Islands Past Weather in Adamstown, Pitcairn Islands — Yesterday and Last 2 Weeks

Now
67 °F

Mild.


Feels Like: 67 °F
Forecast: 67 / 71 °F
Wind: 24 mph from Southeast

Location: Rikitea

Current Time: Jun 27, 2016 at 1:32:03 AM

Latest Report: Jun 27, 2016 at 12:00 AM


Visibility: N/A

Pressure: 30.10 "Hg

Humidity: 86%

Dew Point: 63 °F

Location of AdamstownLocation

Past Weather in Adamstown — Graph

°F

Adamstown Temperature Yesterday

Maximum temperature yesterday: 71 °F (at 10:00 AM)
Minimum temperature yesterday: 66 °F (at 9:00 PM)
Average temperature yesterday: 68 °F

High & Low Weather Summary for the Past Weeks

 TemperatureHumidityPressure
High77 °F (Jun 23, 4:00 PM)98% (Jun 18, 2:00 AM)30.23 "Hg (Jun 18, 2:00 AM)
Low66 °F (Jun 26, 9:00 PM)58% (Jun 12, 12:00 PM)29.95 "Hg (Jun 22, 5:00 PM)
Average71 °F82%30.08 "Hg
* Reported Jun 12 12:00 AM — Jun 27 12:00 AM, Adamstown, Weather by CustomWeather, © 2016

Note: Actual official high and low records may vary slightly from our data, if they occured in-between our weather recording intervals... More about our weather records

Advertising

Adamstown Weather History for the Previous 24 Hours

Scroll right to see more
 ConditionsComfort  
Time TempWeatherWind HumidityBarometerVisibility
12:00 AM
Mon, Jun 27
67 °FMild.24 mph86%30.10 "HgN/A
11:00 PM
Sun, Jun 26
66 °FMild.22 mph92%30.11 "HgN/A
10:00 PM66 °FMild.23 mph91%30.11 "HgN/A
9:00 PM66 °FMild.24 mph92%30.10 "HgN/A
8:00 PM67 °FMild.23 mph87%30.08 "HgN/A
7:00 PM67 °FMild.25 mph85%30.07 "HgN/A
6:00 PM67 °FOvercast.25 mph85%30.06 "Hg9 mi
5:00 PM67 °FRain. Overcast.20 mph89%30.04 "Hg3 mi
4:00 PM67 °FRain showers. Overcast.13 mph87%30.04 "Hg3 mi
3:00 PM69 °FOvercast.14 mph81%30.04 "Hg16 mi
2:00 PM69 °FLight rain. Overcast.14 mph81%30.05 "Hg9 mi
1:00 PM68 °FLight rain. Overcast.12 mph84%30.07 "Hg9 mi
12:00 PM70 °FOvercast.10 mph78%30.10 "Hg19 mi
11:00 AM70 °FOvercast.12 mph76%30.10 "Hg19 mi
10:00 AM71 °FOvercast.12 mph68%30.10 "Hg19 mi
7:00 AM68 °FOvercast.12 mph74%30.06 "Hg12 mi
6:00 AM69 °FMild.12 mph69%30.05 "HgN/A
5:00 AM69 °FMild.13 mph68%30.05 "HgN/A
4:00 AM68 °FMild.14 mph67%30.05 "HgN/A
3:00 AM68 °FMild.12 mph66%30.06 "HgN/A
2:00 AM68 °FMild.10 mph68%30.07 "HgN/A
1:00 AM67 °FMild.9 mph70%30.09 "HgN/A
Weather by CustomWeather, © 2016

See weather overviewHow to use our weather pages